| time (UTC) | temp C | wind direction | speed KPH | gust KPH | rain 1hr cm | rain 24hr cm | rain mn cm | humidity % | barometer mb |
| 20260902215057 | 29 | 227 | 1.6 | 6.4 | 0.00 | 0.81 | 0.81 | 71 | 1017.2 |
| 20260902214534 | 29 | 187 | 0.0 | 8.0 | 0.00 | 0.81 | 0.81 | 70 | 1017.1 |
| 20260902214033 | 29 | 187 | 3.2 | 11.3 | 0.00 | 0.81 | 0.81 | 69 | 1017.1 |
| 20260902213530 | 29 | 144 | 4.8 | 11.3 | 0.00 | 0.81 | 0.81 | 70 | 1017.2 |
| 20260902213048 | 29 | 215 | 1.6 | 6.4 | 0.00 | 0.81 | 0.81 | 68 | 1017.2 |
| 20260902212524 | 29 | 258 | 1.6 | 6.4 | 0.00 | 0.81 | 0.81 | 71 | 1017.2 |
| 20260902212044 | 29 | 190 | 3.2 | 6.4 | 0.00 | 0.81 | 0.81 | 69 | 1017.2 |
| 20260902211541 | 29 | 220 | 3.2 | 6.4 | 0.00 | 0.81 | 0.81 | 69 | 1017.2 |
| 20260902211040 | 29 | 164 | 3.2 | 8.0 | 0.00 | 0.81 | 0.81 | 70 | 1017.2 |
| 20260902210538 | 28 | 269 | 3.2 | 6.4 | 0.00 | 0.81 | 0.81 | 71 | 1017.2 |
| 20260902210036 | 28 | 221 | 3.2 | 6.4 | 0.00 | 0.81 | 0.81 | 71 | 1017.2 |
| 20260902205538 | 28 | 180 | 0.0 | 6.4 | 0.00 | 0.81 | 0.81 | 72 | 1017.3 |
| 20260902205037 | 28 | 180 | 3.2 | 8.0 | 0.00 | 0.81 | 0.81 | 72 | 1017.4 |
| 20260902204534 | 28 | 209 | 4.8 | 8.0 | 0.00 | 0.81 | 0.81 | 71 | 1017.5 |
| 20260902204034 | 28 | 175 | 3.2 | 8.0 | 0.00 | 0.81 | 0.81 | 72 | 1017.6 |
| 20260902203529 | 28 | 188 | 1.6 | 8.0 | 0.00 | 0.81 | 0.81 | 73 | 1017.8 |
| 20260902203055 | 29 | 179 | 4.8 | 11.3 | 0.00 | 0.81 | 0.81 | 69 | 1017.8 |
| 20260902202555 | 29 | 140 | 4.8 | 11.3 | 0.00 | 0.81 | 0.81 | 72 | 1017.8 |
| 20260902202034 | 29 | 143 | 6.4 | 11.3 | 0.00 | 0.81 | 0.81 | 70 | 1017.7 |
| 20260902201532 | 29 | 166 | 1.6 | 4.8 | 0.00 | 0.81 | 0.81 | 71 | 1017.6 |
| 20260902201032 | 29 | 165 | 1.6 | 8.0 | 0.00 | 0.81 | 0.81 | 71 | 1017.6 |
| 20260902200528 | 28 | 159 | 4.8 | 11.3 | 0.00 | 0.81 | 0.81 | 71 | 1017.6 |
| 20260902200029 | 28 | 139 | 3.2 | 11.3 | 0.00 | 0.81 | 0.81 | 72 | 1017.6 |
| 20260902195526 | 28 | 165 | 1.6 | 8.0 | 0.00 | 0.81 | 0.81 | 72 | 1017.5 |
| 20260902195025 | 28 | 165 | 1.6 | 8.0 | 0.00 | 0.81 | 0.81 | 73 | 1017.5 |
| 20260902194540 | 28 | 218 | 1.6 | 6.4 | 0.00 | 0.81 | 0.81 | 73 | 1017.4 |
| 20260902194039 | 28 | 64 | 3.2 | 11.3 | 0.00 | 0.81 | 0.81 | 72 | 1017.4 |
| 20260902193541 | 28 | 173 | 6.4 | 11.3 | 0.00 | 0.81 | 0.81 | 75 | 1017.4 |
| 20260902193040 | 27 | 80 | 4.8 | 9.7 | 0.00 | 0.81 | 0.81 | 76 | 1017.5 |
| 20260902192538 | 27 | 182 | 1.6 | 12.9 | 0.00 | 0.81 | 0.81 | 77 | 1017.6 |
| 20260902192038 | 27 | 186 | 8.0 | 17.7 | 0.00 | 0.81 | 0.81 | 78 | 1017.8 |
| 20260902191535 | 26 | 150 | 11.3 | 17.7 | 0.00 | 0.81 | 0.81 | 82 | 1017.9 |
| 20260902191034 | 26 | 178 | 4.8 | 11.3 | 0.00 | 0.81 | 0.81 | 84 | 1018.0 |
| 20260902190531 | 25 | 190 | 8.0 | 11.3 | 0.00 | 0.81 | 0.81 | 84 | 1018.0 |
| 20260902190030 | 25 | 188 | 6.4 | 9.7 | 0.00 | 0.81 | 0.81 | 85 | 1017.9 |
| 20260902185528 | 25 | 136 | 1.6 | 11.3 | 0.00 | 0.81 | 0.81 | 87 | 1018.0 |
| 20260902185047 | 24 | 165 | 3.2 | 11.3 | 0.00 | 0.81 | 0.81 | 88 | 1018.1 |
| 20260902184524 | 24 | 160 | 6.4 | 11.3 | 0.00 | 0.81 | 0.81 | 91 | 1018.1 |
| 20260902184043 | 23 | 184 | 4.8 | 8.0 | 0.00 | 0.81 | 0.81 | 89 | 1018.1 |
| 20260902183538 | 23 | 220 | 1.6 | 6.4 | 0.00 | 0.81 | 0.81 | 90 | 1018.2 |
| 20260902183103 | 23 | 156 | 1.6 | 6.4 | 0.00 | 0.81 | 0.81 | 93 | 1018.3 |
| 20260902182539 | 23 | 186 | 1.6 | 4.8 | 0.00 | 0.81 | 0.81 | 93 | 1018.4 |
| 20260902182043 | 23 | 103 | 1.6 | 4.8 | 0.00 | 0.81 | 0.81 | 94 | 1018.3 |
| 20260902181605 | 23 | 194 | 0.0 | 3.2 | 0.00 | 0.81 | 0.81 | 94 | 1018.4 |
| 20260902181027 | 22 | 194 | 0.0 | 1.6 | 0.00 | 0.81 | 0.81 | 94 | 1018.4 |
| 20260902180524 | 22 | 194 | 0.0 | 1.6 | 0.00 | 0.81 | 0.81 | 94 | 1018.2 |
| 20260902180044 | 22 | 194 | 0.0 | 0.0 | 0.03 | 0.81 | 0.81 | 93 | 1018.3 |
| 20260902175540 | 22 | 194 | 0.0 | 1.6 | 0.03 | 0.81 | 0.81 | 93 | 1018.4 |
| 20260902175039 | 22 | 194 | 0.0 | 4.8 | 0.03 | 0.81 | 0.81 | 93 | 1018.5 |
| 20260902174536 | 22 | 194 | 3.2 | 4.8 | 0.03 | 0.81 | 0.81 | 93 | 1018.4 |
| 20260902174035 | 22 | 206 | 3.2 | 6.4 | 0.03 | 0.81 | 0.81 | 93 | 1018.6 |
| 20260902173532 | 22 | 169 | 1.6 | 4.8 | 0.03 | 0.81 | 0.81 | 92 | 1018.7 |
| 20260902173033 | 22 | 228 | 1.6 | 3.2 | 0.05 | 0.81 | 0.81 | 93 | 1018.8 |
| 20260902172554 | 22 | 228 | 1.6 | 8.0 | 0.05 | 0.81 | 0.81 | 92 | 1018.9 |
| 20260902172032 | 22 | 186 | 3.2 | 9.7 | 0.08 | 0.81 | 0.81 | 92 | 1019.1 |
| 20260902171529 | 22 | 188 | 4.8 | 8.0 | 0.13 | 0.81 | 0.81 | 92 | 1019.1 |
| 20260902171054 | 22 | 160 | 0.0 | 1.6 | 0.28 | 0.81 | 0.81 | 93 | 1019.2 |
| 20260902170530 | 22 | 160 | 0.0 | 1.6 | 0.41 | 0.81 | 0.81 | 92 | 1019.3 |
| 20260902170030 | 22 | 160 | 0.0 | 4.8 | 0.61 | 0.79 | 0.79 | 92 | 1019.5 |
| 20260902165528 | 22 | 160 | 1.6 | 4.8 | 0.79 | 0.79 | 0.79 | 91 | 1019.6 |
| 20260902165031 | 22 | 108 | 0.0 | 6.4 | 0.79 | 0.79 | 0.79 | 91 | 1019.4 |
| 20260902164549 | 22 | 108 | 3.2 | 9.7 | 0.79 | 0.79 | 0.79 | 90 | 1019.5 |
| 20260902164027 | 22 | 142 | 1.6 | 9.7 | 0.79 | 0.79 | 0.79 | 89 | 1019.7 |
| 20260902163542 | 22 | 87 | 3.2 | 9.7 | 0.79 | 0.79 | 0.79 | 89 | 1019.7 |
| 20260902163042 | 22 | 86 | 6.4 | 8.0 | 0.76 | 0.76 | 0.76 | 89 | 1019.9 |
| 20260902162540 | 22 | 51 | 1.6 | 8.0 | 0.76 | 0.76 | 0.76 | 88 | 1020.6 |
| 20260902162104 | 23 | 32 | 0.0 | 8.0 | 0.74 | 0.74 | 0.74 | 86 | 1020.9 |
| 20260902161540 | 23 | 66 | 3.2 | 9.7 | 0.69 | 0.69 | 0.69 | 85 | 1021.0 |
| 20260902161105 | 24 | 355 | 4.8 | 9.7 | 0.53 | 0.53 | 0.53 | 84 | 1021.7 |
| 20260902160540 | 25 | 277 | 6.4 | 25.7 | 0.41 | 0.41 | 0.41 | 82 | 1022.3 |
| 20260902160038 | 25 | 313 | 12.9 | 29.0 | 0.15 | 0.15 | 0.15 | 80 | 1022.2 |
| 20260902155536 | 26 | 304 | 14.5 | 33.8 | 0.00 | 0.00 | 0.00 | 80 | 1021.7 |
| 20260902155035 | 26 | 43 | 16.1 | 37.0 | 0.00 | 0.00 | 0.00 | 77 | 1021.2 |
| 20260902154531 | 27 | 5 | 19.3 | 37.0 | 0.00 | 0.00 | 0.00 | 76 | 1021.1 |
| 20260902154052 | 27 | 347 | 12.9 | 25.7 | 0.00 | 0.00 | 0.00 | 74 | 1020.4 |
| 20260902153553 | 28 | 41 | 9.7 | 20.9 | 0.00 | 0.00 | 0.00 | 74 | 1019.7 |
| 20260902153032 | 28 | 40 | 8.0 | 16.1 | 0.00 | 0.00 | 0.00 | 76 | 1019.4 |
| 20260902152529 | 28 | 314 | 8.0 | 16.1 | 0.00 | 0.00 | 0.00 | 75 | 1019.1 |
| 20260902152029 | 28 | 344 | 4.8 | 12.9 | 0.00 | 0.00 | 0.00 | 76 | 1018.8 |
| 20260902151529 | 28 | 304 | 3.2 | 6.4 | 0.00 | 0.00 | 0.00 | 74 | 1018.8 |
| 20260902151054 | 28 | 355 | 1.6 | 6.4 | 0.00 | 0.00 | 0.00 | 73 | 1018.6 |
| 20260902150529 | 28 | 355 | 3.2 | 6.4 | 0.00 | 0.00 | 0.00 | 74 | 1018.6 |
| 20260902150028 | 28 | 297 | 1.6 | 6.4 | 0.00 | 0.00 | 0.00 | 74 | 1018.5 |
| 20260902145543 | 28 | 292 | 1.6 | 4.8 | 0.00 | 0.03 | 0.00 | 72 | 1018.4 |
| 20260902145043 | 28 | 292 | 0.0 | 6.4 | 0.00 | 0.03 | 0.00 | 72 | 1018.4 |
| 20260902144540 | 28 | 310 | 0.0 | 6.4 | 0.00 | 0.03 | 0.00 | 74 | 1018.4 |
| 20260902144039 | 28 | 351 | 1.6 | 6.4 | 0.00 | 0.03 | 0.00 | 75 | 1018.4 |
| 20260902143536 | 28 | 315 | 0.0 | 6.4 | 0.00 | 0.03 | 0.00 | 75 | 1018.3 |
| 20260902143036 | 28 | 325 | 3.2 | 6.4 | 0.00 | 0.03 | 0.00 | 75 | 1018.3 |
| 20260902142557 | 27 | 41 | 0.0 | 0.0 | 0.00 | 0.03 | 0.00 | 74 | 1018.4 |
| 20260902142036 | 27 | 41 | 0.0 | 0.0 | 0.00 | 0.03 | 0.00 | 74 | 1018.3 |
| 20260902141558 | 27 | 41 | 0.0 | 0.0 | 0.00 | 0.03 | 0.00 | 75 | 1018.3 |
| 20260902141036 | 27 | 41 | 0.0 | 0.0 | 0.00 | 0.03 | 0.00 | 76 | 1018.3 |
| 20260902140559 | 27 | 41 | 0.0 | 3.2 | 0.00 | 0.03 | 0.00 | 75 | 1018.3 |
| 20260902140034 | 27 | 41 | 0.0 | 4.8 | 0.00 | 0.03 | 0.00 | 76 | 1018.5 |
| 20260902135531 | 27 | 131 | 1.6 | 4.8 | 0.00 | 0.03 | 0.00 | 75 | 1018.4 |
| 20260902135054 | 26 | 131 | 1.6 | 8.0 | 0.00 | 0.03 | 0.00 | 78 | 1018.4 |
| 20260902134531 | 26 | 131 | 1.6 | 8.0 | 0.00 | 0.03 | 0.00 | 77 | 1018.3 |
| 20260902134029 | 26 | 140 | 4.8 | 8.0 | 0.00 | 0.03 | 0.00 | 77 | 1018.2 |
| 20260902133530 | 26 | 111 | 3.2 | 6.4 | 0.00 | 0.03 | 0.00 | 79 | 1018.3 |
| 20260902133030 | 26 | 49 | 1.6 | 4.8 | 0.00 | 0.03 | 0.00 | 79 | 1018.2 |
| 20260902132526 | 25 | 49 | 0.0 | 3.2 | 0.00 | 0.03 | 0.00 | 80 | 1018.3 |
| 20260902132026 | 25 | 80 | 1.6 | 4.8 | 0.00 | 0.03 | 0.00 | 80 | 1018.4 |
| 20260902131543 | 25 | 80 | 1.6 | 4.8 | 0.00 | 0.03 | 0.00 | 80 | 1018.6 |
| 20260902131042 | 25 | 334 | 0.0 | 3.2 | 0.00 | 0.03 | 0.00 | 82 | 1018.6 |
| 20260902130539 | 25 | 334 | 0.0 | 1.6 | 0.00 | 0.03 | 0.00 | 81 | 1018.6 |
| 20260902130039 | 25 | 334 | 0.0 | 1.6 | 0.00 | 0.03 | 0.00 | 83 | 1018.5 |
| 20260902125536 | 24 | 334 | 0.0 | 1.6 | 0.00 | 0.03 | 0.00 | 83 | 1018.5 |
| 20260902125036 | 24 | 334 | 0.0 | 4.8 | 0.00 | 0.03 | 0.00 | 83 | 1018.3 |
| 20260902124559 | 24 | 334 | 0.0 | 4.8 | 0.00 | 0.03 | 0.00 | 83 | 1018.3 |
| 20260902124103 | 23 | 334 | 3.2 | 4.8 | 0.00 | 0.03 | 0.00 | 84 | 1018.4 |
| 20260902123538 | 23 | 334 | 0.0 | 3.2 | 0.00 | 0.03 | 0.00 | 84 | 1018.3 |
| 20260902123102 | 23 | 334 | 0.0 | 4.8 | 0.00 | 0.03 | 0.00 | 85 | 1018.2 |
| 20260902122538 | 23 | 334 | 0.0 | 3.2 | 0.00 | 0.03 | 0.00 | 85 | 1018.1 |
| 20260902122041 | 23 | 302 | 0.0 | 4.8 | 0.00 | 0.03 | 0.00 | 86 | 1018.0 |
| 20260902121539 | 23 | 324 | 1.6 | 8.0 | 0.00 | 0.03 | 0.00 | 86 | 1018.0 |
| 20260902121038 | 23 | 13 | 0.0 | 8.0 | 0.00 | 0.03 | 0.00 | 86 | 1018.0 |
| 20260902120540 | 23 | 339 | 3.2 | 6.4 | 0.00 | 0.03 | 0.00 | 86 | 1018.1 |
| 20260902120038 | 22 | 355 | 3.2 | 6.4 | 0.00 | 0.03 | 0.00 | 87 | 1018.2 |
| 20260902115535 | 22 | 23 | 1.6 | 4.8 | 0.00 | 0.03 | 0.00 | 87 | 1018.1 |
| 20260902115034 | 22 | 11 | 1.6 | 4.8 | 0.00 | 0.03 | 0.00 | 87 | 1018.0 |
| 20260902114531 | 22 | 5 | 1.6 | 4.8 | 0.00 | 0.03 | 0.00 | 88 | 1018.0 |
| 20260902114050 | 22 | 360 | 0.0 | 1.6 | 0.00 | 0.03 | 0.00 | 88 | 1017.9 |
| 20260902113525 | 22 | 360 | 0.0 | 3.2 | 0.00 | 0.03 | 0.00 | 88 | 1017.8 |
| 20260902113025 | 22 | 360 | 0.0 | 4.8 | 0.00 | 0.03 | 0.00 | 88 | 1017.9 |
| 20260902112542 | 22 | 360 | 1.6 | 4.8 | 0.00 | 0.03 | 0.00 | 88 | 1017.8 |
| 20260902112040 | 22 | 355 | 1.6 | 4.8 | 0.00 | 0.03 | 0.00 | 88 | 1018.0 |
| 20260902111538 | 22 | 61 | 0.0 | 4.8 | 0.00 | 0.03 | 0.00 | 87 | 1017.7 |
| 20260902111102 | 22 | 61 | 0.0 | 6.4 | 0.00 | 0.03 | 0.00 | 87 | 1017.7 |
| 20260902110538 | 22 | 80 | 3.2 | 6.4 | 0.00 | 0.03 | 0.00 | 87 | 1017.5 |
| 20260902110037 | 22 | 17 | 3.2 | 4.8 | 0.00 | 0.03 | 0.00 | 87 | 1017.5 |
| 20260902105534 | 22 | 329 | 0.0 | 3.2 | 0.00 | 0.03 | 0.00 | 87 | 1017.7 |
| 20260902105033 | 22 | 329 | 0.0 | 3.2 | 0.00 | 0.03 | 0.00 | 87 | 1017.7 |
| 20260902104551 | 22 | 329 | 1.6 | 8.0 | 0.00 | 0.03 | 0.00 | 86 | 1017.8 |
| 20260902104053 | 22 | 329 | 3.2 | 8.0 | 0.00 | 0.03 | 0.00 | 86 | 1017.8 |
| 20260902103551 | 22 | 316 | 3.2 | 4.8 | 0.00 | 0.03 | 0.00 | 86 | 1017.7 |
| 20260902103033 | 22 | 165 | 0.0 | 4.8 | 0.00 | 0.03 | 0.00 | 86 | 1017.6 |
| 20260902102532 | 22 | 165 | 1.6 | 4.8 | 0.00 | 0.03 | 0.00 | 86 | 1017.6 |
| 20260902102030 | 22 | 165 | 3.2 | 6.4 | 0.00 | 0.03 | 0.00 | 86 | 1017.6 |
| 20260902101553 | 22 | 165 | 0.0 | 3.2 | 0.00 | 0.03 | 0.00 | 86 | 1017.6 |
| 20260902101051 | 22 | 165 | 0.0 | 0.0 | 0.00 | 0.03 | 0.00 | 85 | 1017.6 |
| 20260902100527 | 22 | 165 | 0.0 | 0.0 | 0.00 | 0.03 | 0.00 | 85 | 1017.6 |
| 20260902100027 | 22 | 165 | 0.0 | 0.0 | 0.00 | 0.03 | 0.00 | 85 | 1017.7 |
| 20260902095543 | 22 | 165 | 0.0 | 0.0 | 0.00 | 0.03 | 0.00 | 85 | 1017.7 |
| 20260902095042 | 22 | 165 | 0.0 | 0.0 | 0.00 | 0.03 | 0.00 | 85 | 1017.6 |
| 20260902094604 | 22 | 165 | 0.0 | 4.8 | 0.00 | 0.03 | 0.00 | 85 | 1017.5 |
| 20260902094042 | 22 | 165 | 1.6 | 8.0 | 0.00 | 0.03 | 0.00 | 85 | 1017.5 |
| 20260902093539 | 22 | 165 | 4.8 | 8.0 | 0.00 | 0.03 | 0.00 | 85 | 1017.5 |
| 20260902093038 | 22 | 165 | 3.2 | 8.0 | 0.00 | 0.03 | 0.00 | 85 | 1017.4 |
| 20260902092533 | 22 | 165 | 6.4 | 8.0 | 0.00 | 0.03 | 0.00 | 86 | 1017.4 |
| 20260902092034 | 22 | 165 | 4.8 | 9.7 | 0.00 | 0.03 | 0.00 | 86 | 1017.6 |
| 20260902091530 | 22 | 164 | 4.8 | 9.7 | 0.00 | 0.03 | 0.00 | 86 | 1017.6 |
| 20260902091055 | 22 | 150 | 4.8 | 12.9 | 0.00 | 0.03 | 0.00 | 86 | 1017.5 |
| 20260902090531 | 22 | 151 | 8.0 | 16.1 | 0.00 | 0.03 | 0.00 | 86 | 1017.5 |
| 20260902090034 | 22 | 147 | 11.3 | 16.1 | 0.00 | 0.03 | 0.00 | 86 | 1017.4 |
| 20260902085533 | 22 | 139 | 8.0 | 14.5 | 0.00 | 0.03 | 0.00 | 86 | 1017.5 |
| 20260902085052 | 22 | 123 | 8.0 | 14.5 | 0.00 | 0.03 | 0.00 | 86 | 1017.4 |
| 20260902084529 | 22 | 144 | 8.0 | 12.9 | 0.00 | 0.03 | 0.00 | 86 | 1017.3 |
| 20260902084048 | 22 | 143 | 6.4 | 11.3 | 0.00 | 0.03 | 0.00 | 86 | 1017.3 |
| 20260902083525 | 22 | 140 | 4.8 | 11.3 | 0.00 | 0.03 | 0.00 | 86 | 1017.4 |
| 20260902083050 | 22 | 153 | 4.8 | 9.7 | 0.00 | 0.03 | 0.00 | 86 | 1017.3 |
| 20260902082526 | 22 | 146 | 1.6 | 8.0 | 0.00 | 0.03 | 0.00 | 86 | 1017.4 |
| 20260902082026 | 22 | 146 | 6.4 | 8.0 | 0.00 | 0.03 | 0.00 | 85 | 1017.3 |
| 20260902081542 | 22 | 149 | 6.4 | 11.3 | 0.00 | 0.03 | 0.00 | 85 | 1017.3 |
| 20260902081040 | 22 | 146 | 6.4 | 11.3 | 0.00 | 0.03 | 0.00 | 85 | 1017.2 |
| 20260902080537 | 22 | 128 | 3.2 | 9.7 | 0.00 | 0.03 | 0.00 | 86 | 1017.2 |
| 20260902080037 | 22 | 144 | 1.6 | 6.4 | 0.00 | 0.03 | 0.00 | 85 | 1017.3 |
| 20260902075535 | 22 | 130 | 4.8 | 6.4 | 0.00 | 0.03 | 0.00 | 85 | 1017.3 |
| 20260902075035 | 23 | 130 | 1.6 | 4.8 | 0.00 | 0.03 | 0.00 | 85 | 1017.2 |
| 20260902074532 | 23 | 275 | 1.6 | 4.8 | 0.00 | 0.03 | 0.00 | 85 | 1017.2 |
| 20260902074057 | 23 | 275 | 0.0 | 0.0 | 0.00 | 0.03 | 0.00 | 85 | 1017.1 |
| 20260902073557 | 23 | 275 | 0.0 | 0.0 | 0.00 | 0.03 | 0.00 | 85 | 1017.1 |
| 20260902073101 | 23 | 275 | 0.0 | 0.0 | 0.00 | 0.03 | 0.00 | 86 | 1017.0 |
| 20260902072537 | 23 | 275 | 0.0 | 0.0 | 0.00 | 0.03 | 0.00 | 86 | 1017.1 |
| 20260902072041 | 23 | 275 | 0.0 | 0.0 | 0.00 | 0.03 | 0.00 | 85 | 1017.0 |
| 20260902071538 | 23 | 275 | 0.0 | 3.2 | 0.00 | 0.03 | 0.00 | 85 | 1017.0 |
| 20260902071103 | 23 | 275 | 0.0 | 3.2 | 0.00 | 0.03 | 0.00 | 85 | 1017.0 |
| 20260902070604 | 23 | 275 | 1.6 | 3.2 | 0.00 | 0.03 | 0.00 | 85 | 1017.0 |
| 20260902070042 | 23 | 275 | 0.0 | 0.0 | 0.00 | 0.03 | 0.00 | 84 | 1017.1 |
| 20260902065537 | 23 | 275 | 0.0 | 0.0 | 0.00 | 0.03 | 0.00 | 85 | 1017.1 |
| 20260902065037 | 23 | 275 | 0.0 | 0.0 | 0.00 | 0.03 | 0.00 | 84 | 1017.1 |
| 20260902064559 | 23 | 275 | 0.0 | 0.0 | 0.00 | 0.03 | 0.00 | 84 | 1017.0 |
| 20260902064037 | 23 | 275 | 0.0 | 0.0 | 0.00 | 0.03 | 0.00 | 83 | 1017.0 |
| 20260902063559 | 23 | 275 | 0.0 | 0.0 | 0.00 | 0.03 | 0.00 | 84 | 1016.9 |
| 20260902063037 | 23 | 275 | 0.0 | 0.0 | 0.00 | 0.03 | 0.00 | 83 | 1017.0 |
| 20260902062534 | 23 | 275 | 0.0 | 0.0 | 0.00 | 0.03 | 0.00 | 83 | 1017.1 |
| 20260902062033 | 23 | 275 | 0.0 | 0.0 | 0.00 | 0.03 | 0.00 | 83 | 1017.2 |
| 20260902061035 | 23 | 275 | 0.0 | 0.0 | 0.00 | 0.03 | 0.00 | 82 | 1017.2 |
| 20260902060532 | 23 | 275 | 0.0 | 0.0 | 0.00 | 0.03 | 0.00 | 82 | 1017.3 |
| 20260902060031 | 23 | 275 | 0.0 | 0.0 | 0.00 | 0.03 | 0.00 | 82 | 1017.3 |
| 20260902055548 | 23 | 275 | 0.0 | 0.0 | 0.00 | 0.03 | 0.00 | 81 | 1017.3 |
| 20260902055025 | 23 | 275 | 0.0 | 0.0 | 0.00 | 0.03 | 0.00 | 81 | 1017.4 |
| 20260902054525 | 24 | 275 | 0.0 | 1.6 | 0.00 | 0.03 | 0.00 | 81 | 1017.5 |
| 20260902054025 | 24 | 275 | 0.0 | 1.6 | 0.00 | 0.03 | 0.00 | 80 | 1017.6 |
| 20260902053542 | 24 | 275 | 0.0 | 1.6 | 0.00 | 0.03 | 0.00 | 80 | 1017.6 |
| 20260902053042 | 24 | 275 | 0.0 | 0.0 | 0.00 | 0.03 | 0.00 | 80 | 1017.7 |
| 20260902052539 | 24 | 275 | 0.0 | 3.2 | 0.00 | 0.03 | 0.00 | 80 | 1017.7 |
| 20260902052039 | 24 | 275 | 0.0 | 4.8 | 0.00 | 0.03 | 0.00 | 80 | 1017.7 |
| 20260902051601 | 24 | 275 | 3.2 | 4.8 | 0.00 | 0.03 | 0.00 | 79 | 1017.7 |
| 20260902051040 | 25 | 275 | 0.0 | 4.8 | 0.00 | 0.03 | 0.00 | 79 | 1017.7 |
| 20260902050536 | 25 | 324 | 1.6 | 6.4 | 0.00 | 0.03 | 0.00 | 78 | 1017.8 |
| 20260902050036 | 25 | 324 | 3.2 | 6.4 | 0.00 | 0.03 | 0.00 | 78 | 1017.9 |
| 20260902045533 | 25 | 326 | 3.2 | 6.4 | 0.00 | 0.03 | 0.00 | 77 | 1017.9 |
| 20260902045033 | 25 | 294 | 3.2 | 8.0 | 0.00 | 0.03 | 0.00 | 77 | 1017.9 |
| 20260902044530 | 25 | 313 | 4.8 | 8.0 | 0.00 | 0.03 | 0.00 | 77 | 1017.8 |
| 20260902044029 | 25 | 321 | 1.6 | 8.0 | 0.00 | 0.03 | 0.00 | 76 | 1017.8 |
| 20260902043545 | 25 | 330 | 4.8 | 11.3 | 0.00 | 0.03 | 0.00 | 75 | 1017.6 |
| 20260902043043 | 25 | 313 | 4.8 | 11.3 | 0.00 | 0.03 | 0.00 | 75 | 1017.6 |
| 20260902042524 | 25 | 5 | 0.0 | 4.8 | 0.00 | 0.03 | 0.00 | 74 | 1017.4 |
| 20260902042044 | 25 | 5 | 0.0 | 8.0 | 0.00 | 0.03 | 0.00 | 74 | 1017.4 |
| 20260902041541 | 26 | 348 | 1.6 | 8.0 | 0.00 | 0.03 | 0.00 | 74 | 1017.4 |
| 20260902041040 | 26 | 344 | 3.2 | 11.3 | 0.00 | 0.03 | 0.00 | 74 | 1017.4 |
| 20260902040537 | 26 | 347 | 4.8 | 14.5 | 0.00 | 0.03 | 0.00 | 73 | 1017.5 |
| 20260902040036 | 26 | 36 | 1.6 | 14.5 | 0.00 | 0.03 | 0.00 | 73 | 1017.4 |
| 20260902035559 | 26 | 9 | 3.2 | 19.3 | 0.00 | 0.03 | 0.03 | 73 | 1017.5 |
| 20260902035037 | 26 | 71 | 6.4 | 29.0 | 0.00 | 0.03 | 0.03 | 73 | 1017.5 |
| 20260902034535 | 26 | 36 | 8.0 | 33.8 | 0.00 | 0.03 | 0.03 | 72 | 1017.5 |
| 20260902034034 | 26 | 49 | 14.5 | 35.4 | 0.00 | 0.03 | 0.03 | 72 | 1017.5 |
| 20260902033531 | 26 | 40 | 14.5 | 37.0 | 0.00 | 0.03 | 0.03 | 71 | 1017.3 |
| 20260902033031 | 27 | 74 | 20.9 | 40.2 | 0.00 | 0.03 | 0.03 | 71 | 1017.2 |
| 20260902032552 | 27 | 344 | 16.1 | 40.2 | 0.00 | 0.03 | 0.03 | 71 | 1017.1 |
| 20260902032055 | 27 | 50 | 6.4 | 17.7 | 0.00 | 0.03 | 0.03 | 73 | 1017.0 |
| 20260902031556 | 27 | 346 | 9.7 | 17.7 | 0.00 | 0.03 | 0.03 | 73 | 1016.7 |
| 20260902031035 | 27 | 182 | 0.0 | 6.4 | 0.00 | 0.03 | 0.03 | 72 | 1016.5 |
| 20260902030532 | 27 | 182 | 1.6 | 6.4 | 0.00 | 0.03 | 0.03 | 72 | 1016.4 |
| 20260902030057 | 27 | 171 | 6.4 | 8.0 | 0.00 | 0.03 | 0.03 | 71 | 1016.2 |
| 20260902025559 | 27 | 226 | 3.2 | 4.8 | 0.00 | 0.03 | 0.03 | 71 | 1016.1 |
| 20260902025037 | 27 | 226 | 0.0 | 3.2 | 0.00 | 0.03 | 0.03 | 71 | 1016.1 |
| 20260902024539 | 27 | 207 | 0.0 | 6.4 | 0.00 | 0.03 | 0.03 | 71 | 1016.0 |
| 20260902024038 | 27 | 189 | 0.0 | 6.4 | 0.00 | 0.03 | 0.03 | 70 | 1015.9 |
| 20260902023601 | 27 | 189 | 4.8 | 4.8 | 0.00 | 0.03 | 0.03 | 70 | 1015.8 |
| 20260902023103 | 28 | 189 | 0.0 | 4.8 | 0.00 | 0.03 | 0.03 | 70 | 1015.7 |
| 20260902022539 | 28 | 211 | 1.6 | 8.0 | 0.00 | 0.03 | 0.03 | 70 | 1015.6 |
| 20260902022103 | 28 | 202 | 3.2 | 9.7 | 0.00 | 0.03 | 0.03 | 70 | 1015.4 |
| 20260902021604 | 28 | 202 | 3.2 | 11.3 | 0.00 | 0.03 | 0.03 | 69 | 1015.2 |
| 20260902021042 | 28 | 187 | 8.0 | 11.3 | 0.00 | 0.03 | 0.03 | 69 | 1015.0 |
| 20260902020538 | 28 | 208 | 3.2 | 11.3 | 0.00 | 0.03 | 0.03 | 69 | 1015.1 |
| 20260902020037 | 28 | 183 | 4.8 | 8.0 | 0.00 | 0.03 | 0.03 | 69 | 1015.2 |
| 20260902015534 | 28 | 178 | 6.4 | 11.3 | 0.00 | 0.03 | 0.03 | 68 | 1015.2 |
| 20260902015033 | 28 | 196 | 6.4 | 12.9 | 0.00 | 0.03 | 0.03 | 68 | 1015.4 |
| 20260902014551 | 28 | 215 | 6.4 | 12.9 | 0.00 | 0.03 | 0.03 | 68 | 1015.4 |
| 20260902014049 | 28 | 205 | 6.4 | 12.9 | 0.00 | 0.03 | 0.03 | 68 | 1015.3 |
| 20260902013525 | 28 | 187 | 8.0 | 12.9 | 0.00 | 0.03 | 0.03 | 68 | 1015.4 |
| 20260902013044 | 28 | 217 | 3.2 | 6.4 | 0.00 | 0.03 | 0.03 | 68 | 1015.4 |
| 20260902012541 | 28 | 211 | 0.0 | 3.2 | 0.00 | 0.03 | 0.03 | 69 | 1015.5 |
| 20260902012041 | 28 | 211 | 0.0 | 4.8 | 0.00 | 0.03 | 0.03 | 68 | 1015.5 |
| 20260902011537 | 29 | 211 | 1.6 | 4.8 | 0.00 | 0.03 | 0.03 | 68 | 1015.5 |
| 20260902011036 | 29 | 183 | 3.2 | 4.8 | 0.00 | 0.03 | 0.03 | 68 | 1015.5 |
| 20260902010537 | 29 | 183 | 1.6 | 4.8 | 0.00 | 0.03 | 0.03 | 69 | 1015.5 |
| 20260902010101 | 29 | 183 | 0.0 | 4.8 | 0.00 | 0.03 | 0.03 | 68 | 1015.4 |
| 20260902005535 | 29 | 183 | 0.0 | 1.6 | 0.00 | 0.03 | 0.03 | 68 | 1015.4 |
| 20260902005033 | 29 | 183 | 0.0 | 6.4 | 0.00 | 0.03 | 0.03 | 67 | 1015.2 |
| 20260902004531 | 29 | 183 | 1.6 | 6.4 | 0.00 | 0.03 | 0.03 | 67 | 1014.9 |
| 20260902004028 | 29 | 232 | 1.6 | 8.0 | 0.00 | 0.03 | 0.03 | 67 | 1014.6 |
| 20260902003531 | 29 | 262 | 3.2 | 12.9 | 0.00 | 0.03 | 0.03 | 67 | 1014.4 |
| 20260902003030 | 29 | 255 | 4.8 | 14.5 | 0.00 | 0.03 | 0.03 | 67 | 1014.2 |
| 20260902002548 | 30 | 260 | 4.8 | 14.5 | 0.00 | 0.03 | 0.03 | 66 | 1014.2 |
| 20260902002026 | 30 | 242 | 4.8 | 14.5 | 0.00 | 0.03 | 0.03 | 65 | 1014.2 |
| 20260902001543 | 30 | 294 | 3.2 | 14.5 | 0.00 | 0.03 | 0.03 | 65 | 1014.2 |
| 20260902001043 | 30 | 235 | 6.4 | 14.5 | 0.00 | 0.03 | 0.03 | 65 | 1014.1 |
| 20260902000537 | 30 | 240 | 4.8 | 14.5 | 0.00 | 0.03 | 0.03 | 65 | 1014.0 |
| 20260902000036 | 30 | 215 | 3.2 | 14.5 | 0.00 | 0.03 | 0.03 | 64 | 1014.0 |
| 20260901235533 | 30 | 259 | 6.4 | 14.5 | 0.00 | 0.03 | 0.03 | 64 | 1014.0 |
| 20260901235033 | 30 | 246 | 4.8 | 11.3 | 0.00 | 0.03 | 0.03 | 63 | 1013.9 |
| 20260901234529 | 31 | 233 | 6.4 | 16.1 | 0.00 | 0.03 | 0.03 | 63 | 1013.8 |
| 20260901234032 | 31 | 256 | 6.4 | 22.5 | 0.00 | 0.03 | 0.03 | 63 | 1013.8 |
| 20260901233553 | 31 | 269 | 6.4 | 22.5 | 0.00 | 0.03 | 0.03 | 62 | 1013.7 |
| 20260901233031 | 31 | 259 | 3.2 | 17.7 | 0.00 | 0.03 | 0.03 | 63 | 1013.7 |
| 20260901232527 | 31 | 225 | 4.8 | 11.3 | 0.00 | 0.03 | 0.03 | 62 | 1013.8 |
| 20260901232026 | 31 | 236 | 1.6 | 11.3 | 0.00 | 0.03 | 0.03 | 62 | 1013.8 |
| 20260901231543 | 32 | 232 | 1.6 | 12.9 | 0.00 | 0.03 | 0.03 | 61 | 1013.7 |
| 20260901231042 | 32 | 252 | 4.8 | 12.9 | 0.00 | 0.03 | 0.03 | 60 | 1013.7 |
| 20260901230605 | 32 | 257 | 6.4 | 11.3 | 0.00 | 0.03 | 0.03 | 60 | 1013.7 |
| 20260901230043 | 32 | 242 | 4.8 | 12.9 | 0.00 | 0.03 | 0.03 | 59 | 1013.8 |
| 20260901225541 | 32 | 242 | 6.4 | 12.9 | 0.00 | 0.03 | 0.03 | 59 | 1013.8 |
| 20260901225040 | 32 | 242 | 1.6 | 9.7 | 0.00 | 0.03 | 0.03 | 59 | 1013.8 |
| 20260901224537 | 32 | 254 | 4.8 | 11.3 | 0.00 | 0.03 | 0.03 | 58 | 1013.8 |
| 20260901224037 | 33 | 240 | 1.6 | 9.7 | 0.00 | 0.03 | 0.03 | 58 | 1013.8 |
| 20260901223534 | 33 | 245 | 1.6 | 9.7 | 0.00 | 0.03 | 0.03 | 57 | 1013.9 |
| 20260901223031 | 33 | 234 | 1.6 | 9.7 | 0.00 | 0.03 | 0.03 | 57 | 1013.9 |
| 20260901222529 | 33 | 238 | 1.6 | 11.3 | 0.00 | 0.03 | 0.03 | 57 | 1013.8 |
| 20260901222029 | 33 | 242 | 3.2 | 16.1 | 0.00 | 0.03 | 0.03 | 57 | 1013.7 |
| 20260901221531 | 33 | 249 | 6.4 | 16.1 | 0.00 | 0.03 | 0.03 | 57 | 1013.7 |
| 20260901221055 | 33 | 229 | 3.2 | 12.9 | 0.00 | 0.03 | 0.03 | 57 | 1013.8 |
| 20260901220531 | 33 | 242 | 3.2 | 12.9 | 0.00 | 0.03 | 0.03 | 57 | 1013.8 |
| 20260901220053 | 33 | 255 | 3.2 | 14.5 | 0.00 | 0.03 | 0.03 | 57 | 1013.8 |
| 20260901215529 | 33 | 250 | 4.8 | 14.5 | 0.00 | 0.03 | 0.03 | 57 | 1013.8 |